Content
SEND FEEDBACK

Daily
Averages
Monthly
Summary
United States of America

ROCK HILL, NEW YORK


Home > North America > United States > New York
Elevation: 1260 feet     Latitude: 41 35N     Longitude: 074 37W

WEATHER
 
SELECT A DAY
Number of Records: 443,913;   Date Range: 1/1/95 - 9/3/14
 
SHARE

PRINT THIS DATA

[ ← Previous Day ]
WEATHER ALMANAC - DECEMBER 21, 2013
[ Next Day → ]
[ °C ]   °F
Weather ElementAverageHighLow
Temperature43.1 °F53.6 °F (2:15 pm)35.6 °F (1:55 am)
Dewpoint35.3 °F42.8 °F (3:55 pm)28.4 °F (12:35 am)
Humidity74.5 %87 % (7:35 pm)58 % (1:15 pm)
Barometer29.92 in29.97 in (8:55 am)29.87 in (1:15 pm)
Wind Speed1.8 mph9.2 mph (8:55 pm)
Weather ElementAverage
Visibility9.3 mi
Wind DirectionENE (68 °)

Weather ElementTotal
Precipitation0.44 in
Heating Degree Days20.4 (Base 65)
Averaged from 71 records on December 21, 2013
WEATHER CONDITIONS BREAKOUT
WIND DIRECTION BREAKOUT
WEATHER BY HOUR - DECEMBER 21, 2013
[ °C ]   °F
Local TimeTemperatureDewpointHumidityBarometerVisibilityWind DirectionWind SpeedGust SpeedPrecipitationEventsConditions
12:35 AM37.4 °F28.4 °F70 %29.93 in10.0 miCalmOvercast
12:55 AM37.4 °F28.4 °F70 %29.94 in10.0 miCalm0.01 inOvercast
1:15 AM37.4 °F28.4 °F70 %29.94 in10.0 miCalmOvercast
1:35 AM37.4 °F30.2 °F75 %29.94 in10.0 miCalmOvercast
1:55 AM35.6 °F28.4 °F75 %29.94 in10.0 miCalm0.01 inOvercast
2:15 AM37.4 °F30.2 °F75 %29.94 in10.0 miCalmOvercast
2:35 AM37.4 °F28.4 °F70 %29.95 in10.0 miCalmOvercast
2:55 AM37.4 °F28.4 °F70 %29.95 in10.0 miCalm0.01 inOvercast
3:15 AM35.6 °F28.4 °F75 %29.94 in10.0 miCalmScattered Clouds
3:35 AM37.4 °F30.2 °F75 %29.93 in10.0 miCalmClear
3:55 AM35.6 °F30.2 °F81 %29.93 in10.0 miNorth (350°)4.6 mphClear
4:15 AM37.4 °F30.2 °F75 %29.93 in10.0 miCalmClear
4:35 AM35.6 °F28.4 °F75 %29.93 in10.0 miNNE (20°)3.5 mphClear
4:55 AM35.6 °F30.2 °F81 %29.92 in10.0 miCalmClear
5:15 AM35.6 °F28.4 °F75 %29.93 in10.0 miCalm0.01 inClear
5:35 AM35.6 °F28.4 °F75 %29.93 in10.0 miCalm0.01 inMostly Cloudy
5:55 AM37.4 °F30.2 °F75 %29.94 in10.0 miCalm0.01 inOvercast
6:15 AM39.2 °F30.2 °F70 %29.95 in10.0 miCalm0.01 inOvercast
6:35 AM35.6 °F30.2 °F81 %29.96 in10.0 miNNW (340°)4.6 mph0.01 inOvercast
6:55 AM37.4 °F30.2 °F75 %29.95 in10.0 miCalm0.02 inOvercast
7:15 AM37.4 °F30.2 °F75 %29.95 in10.0 miCalmMostly Cloudy
7:35 AM35.6 °F28.4 °F75 %29.95 in8.0 miCalmScattered Clouds
7:55 AM35.6 °F30.2 °F81 %29.95 in10.0 miCalmPartly Cloudy
8:15 AM35.6 °F30.2 °F81 %29.95 in10.0 miCalm0.01 inMostly Cloudy
8:35 AM37.4 °F32.0 °F81 %29.95 in10.0 miCalm0.01 inOvercast
8:55 AM37.4 °F30.2 °F75 %29.97 in10.0 miCalm0.02 inOvercast
9:15 AM39.2 °F33.8 °F81 %29.96 in10.0 miCalmOvercast
9:35 AM39.2 °F32.0 °F75 %29.96 in10.0 miCalm0.01 inMostly Cloudy
9:55 AM39.2 °F32.0 °F75 %29.96 in10.0 miCalm0.02 inPartly Cloudy
10:15 AM42.8 °F33.8 °F70 %29.96 in10.0 miCalmScattered Clouds
10:35 AM44.6 °F33.8 °F66 %29.95 in10.0 miSouth (180°)3.5 mph0.02 inMostly Cloudy
10:55 AM44.6 °F33.8 °F66 %29.94 in10.0 miCalm0.03 inMostly Cloudy
11:15 AM44.6 °F35.6 °F71 %29.93 in10.0 miCalmScattered Clouds
11:35 AM46.4 °F35.6 °F66 %29.92 in10.0 miCalm0.01 inScattered Clouds
11:55 AM46.4 °F35.6 °F66 %29.91 in10.0 miCalm0.01 inOvercast
12:15 PM48.2 °F35.6 °F62 %29.90 in10.0 miCalmMostly Cloudy
12:35 PM48.2 °F37.4 °F66 %29.89 in10.0 miCalmMostly Cloudy
12:55 PM50.0 °F37.4 °F62 %29.88 in10.0 miCalmScattered Clouds
1:15 PM51.8 °F37.4 °F58 %29.87 in10.0 miCalmMostly Cloudy
1:35 PM51.8 °F37.4 °F58 %29.88 in10.0 miCalmMostly Cloudy
1:55 PM51.8 °F37.4 °F58 %29.87 in10.0 miCalmMostly Cloudy
2:15 PM53.6 °F39.2 °F58 %29.87 in10.0 miCalmOvercast
2:35 PM51.8 °F39.2 °F62 %29.87 in10.0 miCalmMostly Cloudy
2:55 PM51.8 °F39.2 °F62 %29.88 in10.0 miWest (270°)3.5 mphOvercast
3:15 PM51.8 °F41.0 °F67 %29.89 in8.0 miCalm0.01 inOvercast
3:35 PM48.2 °F41.0 °F76 %29.89 in10.0 miCalm0.01 inMostly Cloudy
3:55 PM48.2 °F42.8 °F82 %29.90 in8.0 miCalm0.01 inOvercast
4:15 PM48.2 °F39.2 °F71 %29.91 in10.0 miSSW (200°)4.6 mph0.01 inMostly Cloudy
4:35 PM48.2 °F39.2 °F71 %29.92 in9.0 miSW (220°)3.5 mph0.02 inOvercast
4:55 PM46.4 °F39.2 °F76 %29.91 in10.0 miSSW (200°)4.6 mph0.03 inOvercast
5:15 PM46.4 °F39.2 °F76 %29.92 in10.0 miSSW (200°)6.9 mph0.01 inScattered Clouds
5:35 PM46.4 °F39.2 °F76 %29.92 in10.0 miSSW (200°)4.6 mph0.01 inScattered Clouds
5:55 PM46.4 °F39.2 °F76 %29.92 in10.0 miSSW (210°)4.6 mph0.01 inScattered Clouds
6:15 PM46.4 °F39.2 °F76 %29.91 in10.0 miSSW (200°)4.6 mph0.01 inScattered Clouds
6:35 PM46.4 °F39.2 °F76 %29.91 in10.0 miSouth (190°)5.8 mph0.01 inScattered Clouds
6:55 PM46.4 °F41.0 °F81 %29.92 in10.0 miSW (220°)3.5 mph0.02 inMostly Cloudy
7:15 PM46.4 °F39.2 °F76 %29.91 in7.0 miCalmMostly Cloudy
7:35 PM42.8 °F39.2 °F87 %29.92 in2.5 miCalmMostly Cloudy
7:55 PM42.8 °F37.4 °F81 %29.93 in1.0 miCalm0.01 inOvercast
8:15 PM42.8 °F37.4 °F81 %29.92 in3.0 miCalmOvercast
8:35 PM42.8 °F37.4 °F81 %29.93 in2.0 miCalmOvercast
8:55 PM46.4 °F42.8 °F87 %29.92 in10.0 miSouth (180°)9.2 mphOvercast
9:15 PM44.6 °F39.2 °F81 %29.91 in6.0 miSouth (170°)8.1 mphOvercast
9:35 PM46.4 °F41.0 °F81 %29.91 in9.0 miSouth (180°)8.1 mphMostly Cloudy
9:55 PM46.4 °F42.8 °F87 %29.90 in10.0 miSouth (170°)4.6 mphMostly Cloudy
10:15 PM46.4 °F42.8 °F87 %29.90 in9.0 miSouth (180°)4.6 mph0.01 inMostly Cloudy
10:35 PM46.4 °F42.8 °F87 %29.90 in8.0 miSSW (210°)4.6 mph0.01 inPartly Cloudy
10:55 PM48.2 °F42.8 °F82 %29.89 in9.0 miSouth (180°)8.1 mph0.01 inPartly Cloudy
11:15 PM48.2 °F42.8 °F82 %29.90 in10.0 miSouth (190°)6.9 mphMostly Cloudy
11:35 PM48.2 °F42.8 °F82 %29.88 in10.0 miSouth (180°)5.8 mphMostly Cloudy
11:55 PM48.2 °F42.8 °F82 %29.88 in9.0 miSouth (190°)5.8 mphPartly Cloudy
Hourly data recorded from KMSV, located miles away from Rock Hill, New York







STORIES FROM OUR PARTNERS